| time (UTC) | temp F | wind direction | speed MPH | gust MPH | rain 1hr in | rain 24hr in | rain mn in | humidity % | barometer mb |
| 20260904083526 | 71 | 210 | 0.0 | 0.0 | 0.00 | 0.18 | 0.18 | 95 | 1006.2 |
| 20260904083023 | 71 | 210 | 0.0 | 0.0 | 0.00 | 0.18 | 0.18 | 95 | 1006.3 |
| 20260904082523 | 71 | 210 | 0.0 | 0.0 | 0.00 | 0.18 | 0.18 | 95 | 1006.4 |
| 20260904082023 | 71 | 233 | 0.0 | 0.0 | 0.00 | 0.18 | 0.18 | 94 | 1006.4 |
| 20260904081522 | 71 | 233 | 0.0 | 0.0 | 0.00 | 0.18 | 0.18 | 94 | 1006.5 |
| 20260904081022 | 71 | 233 | 0.0 | 1.0 | 0.00 | 0.18 | 0.18 | 95 | 1006.5 |
| 20260904080522 | 71 | 233 | 0.0 | 1.0 | 0.00 | 0.18 | 0.18 | 94 | 1006.4 |
| 20260904080030 | 71 | 234 | 0.0 | 0.0 | 0.00 | 0.18 | 0.18 | 95 | 1006.6 |
| 20260904075521 | 71 | 234 | 0.0 | 0.0 | 0.00 | 0.18 | 0.18 | 94 | 1006.3 |
| 20260904075021 | 71 | 234 | 0.0 | 0.0 | 0.00 | 0.18 | 0.18 | 94 | 1006.2 |
| 20260904074521 | 71 | 234 | 0.0 | 0.0 | 0.00 | 0.18 | 0.18 | 94 | 1006.1 |
| 20260904074022 | 71 | 234 | 0.0 | 0.0 | 0.00 | 0.18 | 0.18 | 94 | 1006.1 |
| 20260904073520 | 71 | 234 | 0.0 | 1.0 | 0.00 | 0.18 | 0.18 | 94 | 1006.0 |
| 20260904073020 | 71 | 234 | 0.0 | 1.0 | 0.00 | 0.18 | 0.18 | 94 | 1005.9 |
| 20260904072519 | 71 | 234 | 0.0 | 0.0 | 0.00 | 0.18 | 0.18 | 94 | 1005.9 |
| 20260904072019 | 71 | 234 | 0.0 | 1.0 | 0.00 | 0.18 | 0.18 | 94 | 1005.9 |
| 20260904071518 | 71 | 233 | 0.0 | 1.0 | 0.00 | 0.18 | 0.18 | 94 | 1005.9 |
| 20260904071019 | 71 | 233 | 0.0 | 1.0 | 0.00 | 0.18 | 0.18 | 94 | 1005.8 |
| 20260904070519 | 71 | 233 | 0.0 | 1.0 | 0.00 | 0.18 | 0.18 | 94 | 1005.7 |
| 20260904070019 | 71 | 233 | 0.0 | 1.0 | 0.00 | 0.18 | 0.18 | 94 | 1005.6 |
| 20260904065517 | 71 | 233 | 0.0 | 3.0 | 0.00 | 0.18 | 0.18 | 94 | 1005.6 |
| 20260904065017 | 71 | 228 | 1.0 | 3.0 | 0.00 | 0.18 | 0.18 | 94 | 1005.6 |
| 20260904064524 | 71 | 200 | 0.0 | 1.0 | 0.00 | 0.18 | 0.18 | 94 | 1005.5 |
| 20260904064016 | 71 | 232 | 0.0 | 1.0 | 0.00 | 0.18 | 0.18 | 94 | 1005.6 |
| 20260904063517 | 71 | 236 | 0.0 | 1.0 | 0.00 | 0.18 | 0.18 | 93 | 1005.7 |
| 20260904063021 | 71 | 235 | 0.0 | 0.0 | 0.00 | 0.18 | 0.18 | 93 | 1005.6 |
| 20260904062515 | 71 | 235 | 0.0 | 1.0 | 0.00 | 0.18 | 0.18 | 93 | 1005.6 |
| 20260904062014 | 71 | 235 | 0.0 | 1.0 | 0.00 | 0.18 | 0.18 | 93 | 1005.7 |
| 20260904061514 | 71 | 139 | 0.0 | 0.0 | 0.01 | 0.18 | 0.18 | 93 | 1005.6 |
| 20260904061013 | 72 | 139 | 0.0 | 1.0 | 0.06 | 0.18 | 0.18 | 93 | 1006.0 |
| 20260904060514 | 72 | 139 | 0.0 | 2.0 | 0.12 | 0.18 | 0.18 | 93 | 1006.0 |
| 20260904060012 | 72 | 205 | 0.0 | 2.0 | 0.16 | 0.18 | 0.18 | 93 | 1006.0 |
| 20260904055511 | 72 | 222 | 0.0 | 6.0 | 0.16 | 0.18 | 0.18 | 93 | 1005.9 |
| 20260904055010 | 72 | 209 | 2.0 | 6.0 | 0.18 | 0.18 | 0.18 | 93 | 1006.5 |
| 20260904054512 | 72 | 179 | 2.0 | 6.0 | 0.18 | 0.18 | 0.18 | 93 | 1006.7 |
| 20260904054013 | 72 | 162 | 2.0 | 4.0 | 0.18 | 0.18 | 0.18 | 92 | 1006.7 |
| 20260904053513 | 72 | 220 | 2.0 | 4.0 | 0.18 | 0.18 | 0.18 | 92 | 1006.9 |
| 20260904053016 | 72 | 6 | 0.0 | 2.0 | 0.18 | 0.18 | 0.18 | 91 | 1006.8 |
| 20260904052511 | 72 | 232 | 0.0 | 6.0 | 0.18 | 0.18 | 0.18 | 91 | 1007.0 |
| 20260904052006 | 72 | 232 | 2.0 | 6.0 | 0.18 | 0.18 | 0.18 | 90 | 1007.8 |
| 20260904051505 | 73 | 158 | 0.0 | 8.0 | 0.17 | 0.17 | 0.17 | 90 | 1007.9 |
| 20260904051003 | 73 | 264 | 2.0 | 12.0 | 0.10 | 0.10 | 0.10 | 88 | 1008.3 |
| 20260904050502 | 74 | 37 | 2.0 | 17.0 | 0.03 | 0.03 | 0.03 | 87 | 1008.2 |
| 20260904045559 | 75 | 298 | 5.0 | 16.0 | 0.02 | 0.02 | 0.02 | 85 | 1008.7 |
| 20260904045058 | 77 | 321 | 6.0 | 16.0 | 0.00 | 0.00 | 0.00 | 83 | 1008.8 |
| 20260904044557 | 78 | 290 | 6.0 | 18.0 | 0.00 | 0.00 | 0.00 | 81 | 1008.6 |
| 20260904044056 | 79 | 293 | 5.0 | 27.0 | 0.00 | 0.00 | 0.00 | 81 | 1008.5 |
| 20260904043552 | 80 | 23 | 8.0 | 20.0 | 0.00 | 0.00 | 0.00 | 81 | 1007.9 |
| 20260904043104 | 81 | 329 | 9.0 | 19.0 | 0.00 | 0.00 | 0.00 | 85 | 1007.9 |
| 20260904042554 | 82 | 321 | 3.0 | 8.0 | 0.00 | 0.00 | 0.00 | 88 | 1007.5 |
| 20260904042049 | 82 | 321 | 1.0 | 3.0 | 0.00 | 0.00 | 0.00 | 88 | 1006.7 |
| 20260904041549 | 82 | 260 | 0.0 | 2.0 | 0.00 | 0.00 | 0.00 | 88 | 1006.6 |
| 20260904041048 | 81 | 288 | 0.0 | 2.0 | 0.00 | 0.00 | 0.00 | 89 | 1006.7 |
| 20260904040546 | 81 | 285 | 0.0 | 2.0 | 0.00 | 0.00 | 0.00 | 89 | 1006.7 |
| 20260904040045 | 81 | 284 | 0.0 | 3.0 | 0.00 | 0.00 | 0.00 | 89 | 1006.9 |
| 20260904035545 | 81 | 293 | 1.0 | 3.0 | 0.00 | 0.00 | 0.00 | 89 | 1006.6 |
| 20260904035043 | 81 | 302 | 0.0 | 2.0 | 0.00 | 0.00 | 0.00 | 89 | 1006.5 |
| 20260904034544 | 81 | 295 | 0.0 | 2.0 | 0.00 | 0.00 | 0.00 | 90 | 1006.4 |
| 20260904034045 | 81 | 307 | 0.0 | 2.0 | 0.00 | 0.00 | 0.00 | 90 | 1006.2 |
| 20260904033544 | 81 | 281 | 0.0 | 1.0 | 0.00 | 0.00 | 0.00 | 90 | 1006.1 |
| 20260904033043 | 81 | 292 | 0.0 | 1.0 | 0.00 | 0.00 | 0.00 | 90 | 1006.0 |
| 20260904032543 | 81 | 310 | 0.0 | 0.0 | 0.00 | 0.00 | 0.00 | 90 | 1005.9 |
| 20260904032043 | 81 | 310 | 0.0 | 1.0 | 0.00 | 0.00 | 0.00 | 90 | 1005.9 |
| 20260904031543 | 81 | 310 | 0.0 | 1.0 | 0.00 | 0.00 | 0.00 | 90 | 1005.9 |
| 20260904031042 | 81 | 59 | 0.0 | 1.0 | 0.00 | 0.00 | 0.00 | 90 | 1006.0 |
| 20260904030542 | 81 | 70 | 0.0 | 3.0 | 0.00 | 0.00 | 0.00 | 90 | 1006.1 |
| 20260904030042 | 81 | 7 | 0.0 | 3.0 | 0.00 | 0.00 | 0.00 | 89 | 1006.2 |
| 20260904025542 | 81 | 248 | 0.0 | 1.0 | 0.00 | 0.00 | 0.00 | 89 | 1006.2 |
| 20260904025043 | 81 | 239 | 0.0 | 0.0 | 0.00 | 0.00 | 0.00 | 89 | 1006.3 |
| 20260904024542 | 81 | 239 | 0.0 | 1.0 | 0.00 | 0.00 | 0.00 | 89 | 1006.1 |
| 20260904024041 | 81 | 239 | 0.0 | 1.0 | 0.00 | 0.00 | 0.00 | 89 | 1006.2 |
| 20260904023540 | 82 | 239 | 0.0 | 1.0 | 0.00 | 0.00 | 0.00 | 89 | 1006.3 |
| 20260904023041 | 82 | 239 | 0.0 | 1.0 | 0.00 | 0.00 | 0.00 | 89 | 1006.4 |
| 20260904022541 | 82 | 239 | 0.0 | 1.0 | 0.00 | 0.00 | 0.00 | 89 | 1006.4 |
| 20260904022041 | 82 | 239 | 0.0 | 1.0 | 0.00 | 0.00 | 0.00 | 89 | 1006.5 |
| 20260904021549 | 82 | 232 | 0.0 | 1.0 | 0.00 | 0.00 | 0.00 | 88 | 1006.3 |
| 20260904021041 | 82 | 235 | 0.0 | 1.0 | 0.00 | 0.00 | 0.00 | 88 | 1006.6 |
| 20260904020545 | 82 | 233 | 0.0 | 1.0 | 0.00 | 0.00 | 0.00 | 88 | 1006.6 |
| 20260904020041 | 82 | 207 | 0.0 | 1.0 | 0.00 | 0.00 | 0.00 | 88 | 1006.7 |
| 20260904015540 | 82 | 207 | 0.0 | 1.0 | 0.00 | 0.00 | 0.00 | 88 | 1006.7 |
| 20260904015041 | 82 | 205 | 0.0 | 2.0 | 0.00 | 0.00 | 0.00 | 87 | 1006.6 |
| 20260904014541 | 82 | 208 | 0.0 | 2.0 | 0.00 | 0.00 | 0.00 | 87 | 1006.5 |
| 20260904014041 | 82 | 200 | 0.0 | 2.0 | 0.00 | 0.00 | 0.00 | 87 | 1006.3 |
| 20260904013541 | 82 | 189 | 0.0 | 3.0 | 0.00 | 0.00 | 0.00 | 87 | 1006.5 |
| 20260904013039 | 82 | 200 | 0.0 | 3.0 | 0.00 | 0.00 | 0.00 | 87 | 1006.5 |
| 20260904012540 | 82 | 202 | 0.0 | 1.0 | 0.00 | 0.00 | 0.00 | 87 | 1006.5 |
| 20260904012039 | 82 | 201 | 0.0 | 1.0 | 0.00 | 0.00 | 0.00 | 87 | 1006.6 |
| 20260904011550 | 82 | 206 | 0.0 | 1.0 | 0.00 | 0.00 | 0.00 | 87 | 1006.7 |
| 20260904011039 | 82 | 198 | 0.0 | 1.0 | 0.00 | 0.00 | 0.00 | 87 | 1006.7 |
| 20260904010539 | 82 | 215 | 0.0 | 1.0 | 0.00 | 0.00 | 0.00 | 87 | 1006.7 |
| 20260904010039 | 82 | 216 | 0.0 | 0.0 | 0.00 | 0.00 | 0.00 | 86 | 1006.9 |
| 20260904005539 | 82 | 215 | 0.0 | 0.0 | 0.00 | 0.00 | 0.00 | 86 | 1007.1 |
| 20260904005039 | 82 | 216 | 0.0 | 0.0 | 0.00 | 0.00 | 0.00 | 86 | 1007.0 |
| 20260904004538 | 83 | 215 | 0.0 | 1.0 | 0.00 | 0.00 | 0.00 | 86 | 1007.2 |
| 20260904004038 | 83 | 216 | 0.0 | 1.0 | 0.00 | 0.00 | 0.00 | 85 | 1007.2 |
| 20260904003537 | 83 | 215 | 0.0 | 0.0 | 0.00 | 0.00 | 0.00 | 85 | 1007.3 |
| 20260904003038 | 83 | 215 | 0.0 | 0.0 | 0.00 | 0.00 | 0.00 | 84 | 1007.2 |
| 20260904002538 | 83 | 216 | 0.0 | 0.0 | 0.00 | 0.00 | 0.00 | 84 | 1007.0 |
| 20260904002038 | 83 | 216 | 0.0 | 0.0 | 0.00 | 0.00 | 0.00 | 84 | 1007.1 |
| 20260904001537 | 84 | 215 | 0.0 | 0.0 | 0.00 | 0.00 | 0.00 | 84 | 1007.1 |
| 20260904001037 | 84 | 216 | 0.0 | 0.0 | 0.00 | 0.00 | 0.00 | 83 | 1007.1 |
| 20260904000536 | 84 | 216 | 0.0 | 0.0 | 0.00 | 0.00 | 0.00 | 83 | 1007.0 |
| 20260904000039 | 84 | 215 | 0.0 | 1.0 | 0.00 | 0.00 | 0.00 | 82 | 1007.0 |
| 20260903235537 | 85 | 216 | 0.0 | 1.0 | 0.00 | 0.00 | 0.00 | 82 | 1006.9 |
| 20260903235037 | 85 | 216 | 0.0 | 1.0 | 0.00 | 0.00 | 0.00 | 81 | 1006.8 |
| 20260903234537 | 85 | 215 | 0.0 | 0.0 | 0.00 | 0.00 | 0.00 | 81 | 1006.5 |
| 20260903234036 | 85 | 231 | 0.0 | 0.0 | 0.00 | 0.00 | 0.00 | 80 | 1006.6 |
| 20260903233537 | 86 | 231 | 0.0 | 0.0 | 0.00 | 0.00 | 0.00 | 80 | 1006.7 |
| 20260903233035 | 86 | 231 | 0.0 | 0.0 | 0.00 | 0.00 | 0.00 | 79 | 1006.8 |
| 20260903232538 | 86 | 231 | 0.0 | 0.0 | 0.00 | 0.00 | 0.00 | 79 | 1006.7 |
| 20260903232035 | 87 | 231 | 0.0 | 0.0 | 0.00 | 0.00 | 0.00 | 78 | 1006.7 |
| 20260903231535 | 87 | 231 | 0.0 | 0.0 | 0.00 | 0.00 | 0.00 | 78 | 1006.6 |
| 20260903231034 | 87 | 231 | 0.0 | 1.0 | 0.00 | 0.00 | 0.00 | 77 | 1006.7 |
| 20260903230539 | 88 | 231 | 0.0 | 2.0 | 0.00 | 0.00 | 0.00 | 77 | 1006.5 |
| 20260903230038 | 88 | 231 | 0.0 | 4.0 | 0.00 | 0.00 | 0.00 | 76 | 1006.4 |
| 20260903225534 | 88 | 229 | 1.0 | 4.0 | 0.00 | 0.00 | 0.00 | 76 | 1006.4 |
| 20260903225034 | 88 | 182 | 1.0 | 3.0 | 0.00 | 0.00 | 0.00 | 75 | 1006.3 |
| 20260903224536 | 89 | 200 | 0.0 | 6.0 | 0.00 | 0.00 | 0.00 | 75 | 1006.4 |
| 20260903224034 | 89 | 245 | 2.0 | 6.0 | 0.00 | 0.00 | 0.00 | 74 | 1006.4 |
| 20260903223532 | 89 | 219 | 1.0 | 5.0 | 0.00 | 0.00 | 0.00 | 74 | 1006.4 |
| 20260903223031 | 89 | 233 | 1.0 | 4.0 | 0.00 | 0.00 | 0.00 | 74 | 1006.2 |
| 20260903222531 | 90 | 222 | 1.0 | 4.0 | 0.00 | 0.00 | 0.00 | 73 | 1006.1 |
| 20260903222031 | 90 | 235 | 2.0 | 5.0 | 0.00 | 0.00 | 0.00 | 72 | 1006.0 |
| 20260903221531 | 90 | 221 | 2.0 | 6.0 | 0.00 | 0.00 | 0.00 | 72 | 1006.1 |
| 20260903221030 | 90 | 203 | 2.0 | 6.0 | 0.00 | 0.00 | 0.00 | 72 | 1006.1 |
| 20260903220529 | 90 | 215 | 2.0 | 6.0 | 0.00 | 0.00 | 0.00 | 72 | 1006.0 |
| 20260903220050 | 90 | 234 | 3.0 | 6.0 | 0.00 | 0.00 | 0.00 | 71 | 1006.2 |
| 20260903215529 | 90 | 245 | 2.0 | 5.0 | 0.00 | 0.00 | 0.00 | 71 | 1006.1 |
| 20260903215027 | 90 | 197 | 2.0 | 6.0 | 0.00 | 0.00 | 0.00 | 71 | 1006.1 |
| 20260903214527 | 90 | 178 | 2.0 | 7.0 | 0.00 | 0.00 | 0.00 | 71 | 1006.2 |
| 20260903214027 | 90 | 216 | 2.0 | 5.0 | 0.00 | 0.00 | 0.00 | 71 | 1006.3 |
| 20260903213526 | 90 | 211 | 2.0 | 8.0 | 0.00 | 0.00 | 0.00 | 71 | 1006.2 |
| 20260903213027 | 90 | 238 | 4.0 | 8.0 | 0.00 | 0.00 | 0.00 | 71 | 1006.3 |
| 20260903212527 | 90 | 234 | 2.0 | 5.0 | 0.00 | 0.00 | 0.00 | 71 | 1006.3 |
| 20260903212024 | 90 | 236 | 3.0 | 7.0 | 0.00 | 0.00 | 0.00 | 72 | 1006.4 |
| 20260903211524 | 90 | 229 | 2.0 | 7.0 | 0.00 | 0.00 | 0.00 | 71 | 1006.4 |
| 20260903211022 | 90 | 260 | 2.0 | 7.0 | 0.00 | 0.00 | 0.00 | 71 | 1006.6 |
| 20260903210521 | 90 | 222 | 2.0 | 7.0 | 0.00 | 0.00 | 0.00 | 71 | 1006.6 |
| 20260903210026 | 90 | 49 | 2.0 | 6.0 | 0.00 | 0.00 | 0.00 | 70 | 1006.7 |
| 20260903205521 | 90 | 290 | 1.0 | 7.0 | 0.00 | 0.00 | 0.00 | 69 | 1006.7 |
| 20260903205020 | 90 | 217 | 4.0 | 7.0 | 0.00 | 0.00 | 0.00 | 69 | 1006.8 |
| 20260903204521 | 90 | 217 | 3.0 | 8.0 | 0.00 | 0.00 | 0.00 | 67 | 1006.8 |
| 20260903204020 | 91 | 226 | 0.0 | 6.0 | 0.00 | 0.00 | 0.00 | 68 | 1006.8 |
| 20260903203517 | 90 | 219 | 1.0 | 6.0 | 0.00 | 0.00 | 0.00 | 68 | 1006.9 |
| 20260903203017 | 90 | 235 | 1.0 | 7.0 | 0.00 | 0.00 | 0.00 | 70 | 1007.0 |
| 20260903202515 | 89 | 234 | 2.0 | 8.0 | 0.00 | 0.00 | 0.00 | 70 | 1007.1 |
| 20260903202019 | 89 | 231 | 4.0 | 8.0 | 0.00 | 0.00 | 0.00 | 70 | 1007.2 |
| 20260903201522 | 89 | 229 | 3.0 | 8.0 | 0.00 | 0.00 | 0.00 | 70 | 1007.2 |
| 20260903201014 | 89 | 238 | 3.0 | 7.0 | 0.00 | 0.00 | 0.00 | 70 | 1007.3 |
| 20260903200514 | 89 | 205 | 2.0 | 7.0 | 0.00 | 0.00 | 0.00 | 70 | 1007.5 |
| 20260903200014 | 89 | 230 | 4.0 | 7.0 | 0.00 | 0.00 | 0.00 | 70 | 1007.6 |
| 20260903195513 | 89 | 212 | 1.0 | 5.0 | 0.00 | 0.00 | 0.00 | 71 | 1007.5 |
| 20260903195013 | 88 | 236 | 1.0 | 5.0 | 0.00 | 0.00 | 0.00 | 70 | 1007.6 |
| 20260903194512 | 89 | 238 | 2.0 | 5.0 | 0.00 | 0.00 | 0.00 | 70 | 1007.6 |
| 20260903194014 | 89 | 243 | 0.0 | 6.0 | 0.00 | 0.00 | 0.00 | 71 | 1007.6 |
| 20260903193512 | 88 | 245 | 2.0 | 6.0 | 0.00 | 0.00 | 0.00 | 73 | 1007.9 |
| 20260903193011 | 88 | 233 | 1.0 | 5.0 | 0.00 | 0.00 | 0.00 | 73 | 1007.8 |
| 20260903192508 | 88 | 218 | 1.0 | 4.0 | 0.00 | 0.00 | 0.00 | 73 | 1008.0 |
| 20260903192008 | 88 | 336 | 1.0 | 4.0 | 0.00 | 0.00 | 0.00 | 74 | 1008.0 |
| 20260903191509 | 88 | 251 | 1.0 | 3.0 | 0.00 | 0.00 | 0.00 | 73 | 1008.0 |
| 20260903191010 | 88 | 215 | 0.0 | 5.0 | 0.00 | 0.00 | 0.00 | 74 | 1008.0 |
| 20260903190508 | 88 | 226 | 2.0 | 5.0 | 0.00 | 0.00 | 0.00 | 73 | 1007.9 |
| 20260903190007 | 88 | 246 | 0.0 | 5.0 | 0.00 | 0.00 | 0.00 | 74 | 1007.9 |
| 20260903185511 | 88 | 235 | 2.0 | 5.0 | 0.00 | 0.00 | 0.00 | 73 | 1008.0 |
| 20260903185006 | 88 | 229 | 0.0 | 3.0 | 0.00 | 0.00 | 0.00 | 73 | 1008.2 |
| 20260903184505 | 88 | 226 | 1.0 | 5.0 | 0.00 | 0.00 | 0.00 | 73 | 1008.2 |
| 20260903184008 | 88 | 219 | 1.0 | 5.0 | 0.00 | 0.00 | 0.00 | 73 | 1008.3 |
| 20260903183503 | 88 | 224 | 0.0 | 4.0 | 0.00 | 0.00 | 0.00 | 74 | 1008.2 |
| 20260903183002 | 87 | 203 | 0.0 | 4.0 | 0.00 | 0.00 | 0.00 | 74 | 1008.3 |
| 20260903182503 | 87 | 226 | 1.0 | 4.0 | 0.00 | 0.00 | 0.00 | 74 | 1008.5 |
| 20260903182000 | 87 | 328 | 0.0 | 2.0 | 0.00 | 0.00 | 0.00 | 74 | 1008.7 |
| 20260903181604 | 87 | 352 | 0.0 | 2.0 | 0.00 | 0.00 | 0.00 | 74 | 1008.7 |
| 20260903181100 | 87 | 217 | 0.0 | 4.0 | 0.00 | 0.00 | 0.00 | 74 | 1008.7 |
| 20260903180603 | 87 | 297 | 1.0 | 4.0 | 0.00 | 0.00 | 0.00 | 74 | 1008.8 |
| 20260903175602 | 87 | 69 | 0.0 | 4.0 | 0.00 | 0.00 | 0.00 | 75 | 1009.0 |
| 20260903175059 | 87 | 2 | 1.0 | 4.0 | 0.00 | 0.00 | 0.00 | 74 | 1009.0 |
| 20260903174559 | 87 | 70 | 0.0 | 5.0 | 0.00 | 0.00 | 0.00 | 75 | 1009.0 |
| 20260903174101 | 86 | 61 | 0.0 | 5.0 | 0.00 | 0.00 | 0.00 | 76 | 1009.1 |
| 20260903173558 | 86 | 297 | 1.0 | 6.0 | 0.00 | 0.00 | 0.00 | 75 | 1009.2 |
| 20260903173058 | 87 | 283 | 1.0 | 6.0 | 0.00 | 0.00 | 0.00 | 75 | 1009.3 |
| 20260903172557 | 87 | 254 | 1.0 | 6.0 | 0.00 | 0.00 | 0.00 | 75 | 1009.4 |
| 20260903172100 | 86 | 286 | 1.0 | 6.0 | 0.00 | 0.00 | 0.00 | 77 | 1009.6 |
| 20260903171602 | 85 | 45 | 0.0 | 5.0 | 0.00 | 0.00 | 0.00 | 77 | 1009.6 |
| 20260903171058 | 85 | 296 | 2.0 | 5.0 | 0.00 | 0.00 | 0.00 | 77 | 1009.7 |
| 20260903170553 | 85 | 328 | 2.0 | 5.0 | 0.00 | 0.00 | 0.00 | 77 | 1009.8 |
| 20260903170053 | 84 | 295 | 0.0 | 5.0 | 0.00 | 0.00 | 0.00 | 78 | 1009.8 |
| 20260903165553 | 84 | 348 | 1.0 | 5.0 | 0.00 | 0.00 | 0.00 | 77 | 1010.0 |
| 20260903165051 | 84 | 286 | 0.0 | 3.0 | 0.00 | 0.00 | 0.00 | 78 | 1009.9 |
| 20260903164552 | 84 | 283 | 0.0 | 3.0 | 0.00 | 0.00 | 0.00 | 77 | 1009.9 |
| 20260903164052 | 84 | 243 | 0.0 | 3.0 | 0.00 | 0.00 | 0.00 | 77 | 1009.7 |
| 20260903163552 | 84 | 253 | 0.0 | 2.0 | 0.00 | 0.00 | 0.00 | 77 | 1009.9 |
| 20260903163050 | 84 | 253 | 0.0 | 3.0 | 0.00 | 0.00 | 0.00 | 77 | 1009.8 |
| 20260903162552 | 84 | 231 | 0.0 | 3.0 | 0.00 | 0.00 | 0.00 | 78 | 1010.0 |
| 20260903162051 | 84 | 219 | 0.0 | 4.0 | 0.00 | 0.00 | 0.00 | 78 | 1010.0 |
| 20260903161549 | 84 | 219 | 0.0 | 2.0 | 0.00 | 0.00 | 0.00 | 80 | 1010.1 |
| 20260903161049 | 83 | 136 | 0.0 | 3.0 | 0.00 | 0.00 | 0.00 | 80 | 1010.3 |
| 20260903160547 | 83 | 44 | 0.0 | 3.0 | 0.00 | 0.00 | 0.00 | 80 | 1010.3 |
| 20260903160046 | 82 | 223 | 0.0 | 5.0 | 0.00 | 0.00 | 0.00 | 82 | 1010.3 |
| 20260903155544 | 81 | 234 | 2.0 | 5.0 | 0.00 | 0.00 | 0.00 | 82 | 1010.4 |
| 20260903155045 | 81 | 299 | 1.0 | 3.0 | 0.00 | 0.00 | 0.00 | 82 | 1010.3 |
| 20260903154543 | 80 | 223 | 0.0 | 4.0 | 0.00 | 0.00 | 0.00 | 85 | 1010.5 |
| 20260903154043 | 79 | 319 | 1.0 | 5.0 | 0.00 | 0.00 | 0.00 | 84 | 1010.6 |
| 20260903153542 | 79 | 314 | 1.0 | 5.0 | 0.00 | 0.00 | 0.00 | 85 | 1010.6 |
| 20260903153040 | 79 | 349 | 2.0 | 6.0 | 0.00 | 0.00 | 0.00 | 85 | 1010.6 |
| 20260903152541 | 79 | 295 | 2.0 | 6.0 | 0.00 | 0.00 | 0.00 | 86 | 1010.6 |
| 20260903152041 | 79 | 352 | 0.0 | 4.0 | 0.00 | 0.00 | 0.00 | 86 | 1010.6 |
| 20260903151539 | 78 | 316 | 1.0 | 4.0 | 0.00 | 0.00 | 0.00 | 87 | 1010.5 |
| 20260903151038 | 78 | 287 | 1.0 | 4.0 | 0.00 | 0.00 | 0.00 | 87 | 1010.4 |
| 20260903150537 | 78 | 316 | 1.0 | 4.0 | 0.00 | 0.00 | 0.00 | 87 | 1010.3 |
| 20260903150046 | 78 | 264 | 0.0 | 3.0 | 0.00 | 0.00 | 0.00 | 89 | 1010.2 |
| 20260903145534 | 77 | 252 | 1.0 | 3.0 | 0.00 | 0.00 | 0.00 | 89 | 1010.2 |
| 20260903145035 | 77 | 304 | 0.0 | 4.0 | 0.00 | 0.00 | 0.00 | 91 | 1010.1 |
| 20260903144540 | 76 | 238 | 1.0 | 4.0 | 0.00 | 0.00 | 0.00 | 93 | 1010.1 |
| 20260903144030 | 76 | 220 | 0.0 | 1.0 | 0.00 | 0.00 | 0.00 | 93 | 1010.1 |
| 20260903143530 | 75 | 74 | 0.0 | 1.0 | 0.00 | 0.00 | 0.00 | 93 | 1010.0 |
| 20260903143038 | 75 | 74 | 0.0 | 3.0 | 0.00 | 0.00 | 0.00 | 94 | 1010.1 |
| 20260903142529 | 75 | 73 | 0.0 | 3.0 | 0.00 | 0.00 | 0.00 | 94 | 1010.2 |
| 20260903142028 | 75 | 35 | 0.0 | 3.0 | 0.00 | 0.00 | 0.00 | 94 | 1010.1 |
| 20260903141534 | 75 | 50 | 0.0 | 3.0 | 0.00 | 0.00 | 0.00 | 94 | 1010.1 |
| 20260903141031 | 75 | 51 | 0.0 | 3.0 | 0.00 | 0.00 | 0.00 | 94 | 1010.1 |
| 20260903140528 | 75 | 115 | 0.0 | 4.0 | 0.00 | 0.00 | 0.00 | 95 | 1010.2 |
| 20260903140027 | 75 | 296 | 0.0 | 5.0 | 0.00 | 0.00 | 0.00 | 94 | 1010.1 |
| 20260903135525 | 75 | 22 | 0.0 | 4.0 | 0.00 | 0.00 | 0.00 | 94 | 1010.1 |
| 20260903135026 | 75 | 63 | 0.0 | 1.0 | 0.00 | 0.00 | 0.00 | 95 | 1010.2 |
| 20260903134537 | 74 | 63 | 0.0 | 4.0 | 0.00 | 0.00 | 0.00 | 95 | 1010.0 |
| 20260903134021 | 74 | 64 | 0.0 | 4.0 | 0.00 | 0.00 | 0.00 | 95 | 1010.0 |
| 20260903133525 | 74 | 297 | 0.0 | 4.0 | 0.00 | 0.00 | 0.00 | 95 | 1010.1 |
| 20260903133120 | 74 | 325 | 0.0 | 4.0 | 0.00 | 0.00 | 0.00 | 95 | 1010.1 |
| 20260903132519 | 74 | 2 | 0.0 | 4.0 | 0.00 | 0.00 | 0.00 | 95 | 1010.2 |
| 20260903132017 | 74 | 64 | 0.0 | 4.0 | 0.00 | 0.00 | 0.00 | 95 | 1010.3 |
| 20260903131516 | 74 | 100 | 0.0 | 5.0 | 0.00 | 0.00 | 0.00 | 95 | 1010.3 |
| 20260903131015 | 74 | 55 | 1.0 | 5.0 | 0.00 | 0.00 | 0.00 | 95 | 1010.3 |
| 20260903130514 | 74 | 68 | 0.0 | 3.0 | 0.00 | 0.00 | 0.00 | 95 | 1010.5 |
| 20260903130012 | 74 | 120 | 0.0 | 6.0 | 0.00 | 0.00 | 0.00 | 96 | 1010.5 |
| 20260903125510 | 73 | 58 | 1.0 | 6.0 | 0.00 | 0.00 | 0.00 | 95 | 1010.6 |
| 20260903125009 | 73 | 110 | 0.0 | 4.0 | 0.00 | 0.00 | 0.00 | 96 | 1010.6 |
| 20260903124508 | 73 | 288 | 1.0 | 6.0 | 0.00 | 0.00 | 0.00 | 96 | 1010.7 |
| 20260903124007 | 73 | 293 | 0.0 | 6.0 | 0.00 | 0.00 | 0.00 | 96 | 1010.7 |
| 20260903123506 | 73 | 58 | 2.0 | 7.0 | 0.00 | 0.00 | 0.00 | 96 | 1010.6 |
| 20260903123002 | 73 | 78 | 3.0 | 7.0 | 0.00 | 0.00 | 0.00 | 95 | 1010.7 |
| 20260903122502 | 73 | 34 | 3.0 | 7.0 | 0.00 | 0.00 | 0.00 | 95 | 1010.5 |
| 20260903122059 | 73 | 32 | 3.0 | 7.0 | 0.00 | 0.00 | 0.00 | 95 | 1010.7 |
| 20260903121558 | 73 | 25 | 1.0 | 4.0 | 0.00 | 0.00 | 0.00 | 95 | 1010.2 |
| 20260903121057 | 73 | 67 | 0.0 | 3.0 | 0.00 | 0.00 | 0.00 | 95 | 1010.1 |
| 20260903120600 | 73 | 316 | 0.0 | 3.0 | 0.00 | 0.00 | 0.00 | 96 | 1010.1 |
| 20260903120055 | 73 | 238 | 0.0 | 1.0 | 0.00 | 0.00 | 0.00 | 96 | 1009.9 |
| 20260903115552 | 73 | 238 | 0.0 | 0.0 | 0.00 | 0.00 | 0.00 | 95 | 1009.9 |
| 20260903115051 | 73 | 238 | 0.0 | 0.0 | 0.00 | 0.00 | 0.00 | 96 | 1009.8 |
| 20260903114551 | 72 | 238 | 0.0 | 0.0 | 0.00 | 0.00 | 0.00 | 96 | 1009.9 |
| 20260903114052 | 72 | 238 | 0.0 | 0.0 | 0.00 | 0.00 | 0.00 | 95 | 1009.8 |
| 20260903113547 | 72 | 238 | 0.0 | 0.0 | 0.00 | 0.00 | 0.00 | 95 | 1009.7 |
| 20260903113046 | 72 | 238 | 0.0 | 0.0 | 0.00 | 0.00 | 0.00 | 95 | 1009.7 |
| 20260903112546 | 72 | 238 | 0.0 | 0.0 | 0.00 | 0.00 | 0.00 | 95 | 1009.6 |
| 20260903112044 | 72 | 238 | 0.0 | 0.0 | 0.00 | 0.00 | 0.00 | 95 | 1009.6 |
| 20260903111543 | 72 | 238 | 0.0 | 0.0 | 0.00 | 0.00 | 0.00 | 95 | 1009.5 |
| 20260903111045 | 72 | 238 | 0.0 | 0.0 | 0.00 | 0.00 | 0.00 | 95 | 1009.3 |
| 20260903110542 | 72 | 238 | 0.0 | 0.0 | 0.00 | 0.00 | 0.00 | 95 | 1009.2 |
| 20260903110040 | 72 | 238 | 0.0 | 1.0 | 0.00 | 0.00 | 0.00 | 95 | 1009.0 |
| 20260903105543 | 72 | 238 | 0.0 | 2.0 | 0.00 | 0.00 | 0.00 | 95 | 1009.0 |
| 20260903105041 | 71 | 238 | 0.0 | 2.0 | 0.00 | 0.00 | 0.00 | 95 | 1008.9 |
| 20260903104544 | 71 | 245 | 0.0 | 1.0 | 0.00 | 0.00 | 0.00 | 95 | 1008.8 |
| 20260903104040 | 71 | 237 | 0.0 | 1.0 | 0.00 | 0.00 | 0.00 | 95 | 1008.8 |
| 20260903103543 | 71 | 237 | 0.0 | 1.0 | 0.00 | 0.00 | 0.00 | 95 | 1008.7 |
| 20260903103039 | 71 | 240 | 0.0 | 1.0 | 0.00 | 0.00 | 0.00 | 95 | 1008.7 |
| 20260903102539 | 71 | 243 | 0.0 | 1.0 | 0.00 | 0.00 | 0.00 | 95 | 1008.6 |
| 20260903102037 | 71 | 231 | 0.0 | 0.0 | 0.00 | 0.00 | 0.00 | 95 | 1008.7 |
| 20260903101539 | 71 | 222 | 0.0 | 1.0 | 0.00 | 0.00 | 0.00 | 95 | 1008.7 |
| 20260903101037 | 71 | 260 | 0.0 | 1.0 | 0.00 | 0.00 | 0.00 | 95 | 1008.7 |
| 20260903100537 | 71 | 260 | 0.0 | 1.0 | 0.00 | 0.00 | 0.00 | 95 | 1008.5 |
| 20260903100036 | 71 | 260 | 0.0 | 1.0 | 0.00 | 0.00 | 0.00 | 95 | 1008.7 |
| 20260903095535 | 71 | 260 | 0.0 | 0.0 | 0.00 | 0.00 | 0.00 | 95 | 1008.9 |
| 20260903095034 | 71 | 262 | 0.0 | 0.0 | 0.00 | 0.00 | 0.00 | 95 | 1008.9 |
| 20260903094539 | 71 | 262 | 0.0 | 0.0 | 0.00 | 0.00 | 0.00 | 95 | 1009.0 |
| 20260903094033 | 71 | 262 | 0.0 | 0.0 | 0.00 | 0.00 | 0.00 | 95 | 1009.1 |
| 20260903093531 | 71 | 262 | 0.0 | 1.0 | 0.00 | 0.00 | 0.00 | 95 | 1009.2 |
| 20260903093047 | 71 | 262 | 0.0 | 1.0 | 0.00 | 0.00 | 0.00 | 95 | 1009.2 |
| 20260903092533 | 71 | 260 | 0.0 | 1.0 | 0.00 | 0.00 | 0.00 | 95 | 1009.2 |
| 20260903092031 | 71 | 260 | 0.0 | 0.0 | 0.00 | 0.00 | 0.00 | 95 | 1009.0 |
| 20260903091529 | 71 | 260 | 0.0 | 0.0 | 0.00 | 0.00 | 0.00 | 95 | 1009.1 |
| 20260903091029 | 71 | 260 | 0.0 | 0.0 | 0.00 | 0.00 | 0.00 | 95 | 1009.1 |
| 20260903090530 | 71 | 260 | 0.0 | 1.0 | 0.00 | 0.00 | 0.00 | 95 | 1009.1 |
| 20260903090034 | 71 | 260 | 0.0 | 1.0 | 0.00 | 0.00 | 0.00 | 95 | 1009.1 |
| 20260903085529 | 71 | 260 | 0.0 | 0.0 | 0.00 | 0.00 | 0.00 | 95 | 1009.0 |
| 20260903085028 | 71 | 260 | 0.0 | 0.0 | 0.00 | 0.00 | 0.00 | 95 | 1009.0 |
| 20260903084528 | 71 | 260 | 0.0 | 1.0 | 0.00 | 0.00 | 0.00 | 94 | 1008.9 |
| 20260903084029 | 71 | 260 | 0.0 | 1.0 | 0.00 | 0.00 | 0.00 | 94 | 1008.9 |